Weather History for LFPG - November, 2013

Change the Weather History Date:

Friday, November 22, 2013

  Actual Average Record
Temperature  
Mean Temperature 37 °F -  
Max Temperature 41 °F 44 °F 60 °F (2003)
Min Temperature 33 °F 35 °F 21 °F (1998)
Degree Days  
Heating Degree Days 28    
Moisture  
Dew Point 34 °F    
Average Humidity 84    
Maximum Humidity 93    
Minimum Humidity 76    
Precipitation  
Precipitation 0.00 in - - ()
Sea Level Pressure  
Sea Level Pressure 29.83 in    
Wind  
Wind Speed 13 mph ()    
Max Wind Speed 20 mph    
Max Gust Speed 32 mph    
Visibility 5.2 miles    
Events      
Averages and records for this station are not official NWS values.
T = Trace of Precipitation, MM = Missing Value Source: Averaged Metar Reports

Daily Weather History Graph

Daily Weather History Graph

Search for Another Location

Airport or City:

Trip Planner

Search our weather history database for the weather conditions in past years. The results will help you decide how hot, cold, wet, or windy it might be!

Date:

Astronomy

Nov. 22, 2013 Rise Set
Actual Time 8:10 AM CET 5:01 PM CET
Civil Twilight 7:34 AM CET 5:36 PM CET
Nautical Twilight 6:55 AM CET 6:16 PM CET
Astronomical Twilight 6:17 AM CET 6:53 PM CET
Moon 9:25 PM CET (11/22) 11:39 AM CET (11/22)
Length of Visible Light 10h 02m
Length of Day
8h 51m
Waning Gibbous, 80% of the Moon is Illuminated
Nov 22
Waning Gibbous
Nov 25
Last Quarter
Dec 3
New
Dec 9
First Quarter
Dec 17
Full

Hourly Weather History & Observations

Time (CET) Temp. Windchill Dew Point Humidity Pressure Visibility Wind Dir Wind Speed Gust Speed Precip Events Conditions
12:00 AM 37.4 °F 28.9 °F 35.6 °F 93% 29.71 in 4.3 mi North 13.8 mph - N/A   Mostly Cloudy
12:30 AM 37.4 °F 29.3 °F 35.6 °F 93% 29.71 in 3.7 mi North 12.7 mph - N/A   Mostly Cloudy
1:00 AM 37.4 °F 28.5 °F 35.6 °F 93% 29.74 in 4.3 mi North 15.0 mph - N/A   Mostly Cloudy
1:30 AM 37.4 °F 28.5 °F 35.6 °F 93% 29.74 in 4.3 mi NNE 15.0 mph - N/A   Mostly Cloudy
2:00 AM 37.4 °F 29.8 °F 35.6 °F 93% 29.74 in 4.3 mi NNE 11.5 mph - N/A   Mostly Cloudy
2:30 AM 37.4 °F 29.8 °F 33.8 °F 87% 29.74 in 4.3 mi NNE 11.5 mph - N/A   Mostly Cloudy
3:00 AM 37.4 °F 30.3 °F 33.8 °F 87% 29.74 in 4.3 mi North 10.4 mph - N/A   Mostly Cloudy
3:30 AM 37.4 °F 30.3 °F 33.8 °F 87% 29.74 in 3.7 mi North 10.4 mph - N/A   Mostly Cloudy
4:00 AM 37.4 °F 28.9 °F 33.8 °F 87% 29.74 in 3.7 mi North 13.8 mph - N/A   Scattered Clouds
4:30 AM 35.6 °F 25.9 °F 32.0 °F 87% 29.77 in 3.1 mi North 16.1 mph - N/A   Mostly Cloudy
5:00 AM 35.6 °F 25.9 °F 32.0 °F 87% 29.77 in 3.1 mi North 16.1 mph - N/A   Mostly Cloudy
5:30 AM 35.6 °F 26.2 °F 32.0 °F 87% 29.77 in 3.1 mi North 15.0 mph - N/A   Mostly Cloudy
6:00 AM 35.6 °F 26.6 °F 32.0 °F 87% 29.80 in 3.7 mi NNE 13.8 mph - N/A   Mostly Cloudy
6:30 AM 35.6 °F 26.6 °F 32.0 °F 87% 29.77 in 4.3 mi Variable 13.8 mph - N/A   Mostly Cloudy
7:00 AM 33.8 °F 24.8 °F 32.0 °F 93% 29.80 in 4.3 mi North 12.7 mph 26.5 mph N/A   Mostly Cloudy
7:30 AM 33.8 °F 25.3 °F 30.2 °F 87% 29.80 in 4.3 mi North 11.5 mph - N/A   Mostly Cloudy
8:00 AM 33.8 °F 25.3 °F 30.2 °F 87% 29.80 in 2.5 mi North 11.5 mph - N/A   Scattered Clouds
8:30 AM 33.8 °F 24.8 °F 30.2 °F 87% 29.80 in 3.1 mi North 12.7 mph - N/A   Mostly Cloudy
9:00 AM 33.8 °F 23.9 °F 32.0 °F 93% 29.83 in 4.3 mi North 15.0 mph - N/A   Mostly Cloudy
9:30 AM 35.6 °F 27.1 °F 32.0 °F 87% 29.83 in - NNE 12.7 mph - N/A   Clear
10:00 AM 35.6 °F 26.6 °F 32.0 °F 87% 29.83 in - North 13.8 mph - N/A   Clear
10:30 AM 35.6 °F 25.9 °F 32.0 °F 87% 29.83 in 6.2 mi North 16.1 mph - N/A   Mostly Cloudy
11:00 AM 35.6 °F 26.2 °F 32.0 °F 87% 29.83 in 6.2 mi North 15.0 mph - N/A   Mostly Cloudy
11:30 AM 37.4 °F 28.9 °F 32.0 °F 81% 29.83 in 6.2 mi North 13.8 mph 29.9 mph N/A   Mostly Cloudy
12:00 PM 37.4 °F 28.9 °F 32.0 °F 81% 29.83 in 6.2 mi North 13.8 mph - N/A   Mostly Cloudy
12:30 PM 37.4 °F 28.2 °F 32.0 °F 81% 29.83 in 6.2 mi North 16.1 mph - N/A   Mostly Cloudy
1:00 PM 39.2 °F 29.8 °F 33.8 °F 81% 29.83 in 6.2 mi North 18.4 mph 31.1 mph N/A   Mostly Cloudy
1:30 PM 39.2 °F 29.6 °F 33.8 °F 81% 29.83 in 6.2 mi North 19.6 mph - N/A   Mostly Cloudy
2:00 PM 41.0 °F 31.9 °F 33.8 °F 76% 29.83 in 6.2 mi North 19.6 mph - N/A   Mostly Cloudy
2:30 PM 41.0 °F 31.9 °F 33.8 °F 76% 29.83 in 6.2 mi North 19.6 mph 32.2 mph N/A   Mostly Cloudy
3:00 PM 41.0 °F 33.1 °F 33.8 °F 76% 29.83 in 6.2 mi North 15.0 mph - N/A   Mostly Cloudy
3:30 PM 41.0 °F 32.8 °F 33.8 °F 76% 29.86 in 6.2 mi North 16.1 mph - N/A   Mostly Cloudy
4:00 PM 41.0 °F 33.5 °F 33.8 °F 76% 29.86 in 6.2 mi North 13.8 mph - N/A   Mostly Cloudy
4:30 PM 41.0 °F 33.1 °F 33.8 °F 76% 29.86 in 6.2 mi North 15.0 mph - N/A   Mostly Cloudy
5:00 PM 41.0 °F 32.5 °F 33.8 °F 76% 29.86 in 6.2 mi NNE 17.3 mph - N/A   Overcast
5:30 PM 41.0 °F 31.9 °F 33.8 °F 76% 29.86 in 6.2 mi NNE 19.6 mph - N/A   Overcast
6:00 PM 41.0 °F 32.2 °F 33.8 °F 76% 29.89 in 6.2 mi NNE 18.4 mph - N/A   Scattered Clouds
6:30 PM 41.0 °F 32.8 °F 33.8 °F 76% 29.89 in 6.2 mi NNE 16.1 mph - N/A   Mostly Cloudy
7:00 PM 41.0 °F 33.5 °F 35.6 °F 81% 29.89 in 6.2 mi NNE 13.8 mph - N/A   Mostly Cloudy
7:30 PM 41.0 °F 32.8 °F 35.6 °F 81% 29.92 in 6.2 mi NNE 16.1 mph - N/A   Mostly Cloudy
8:00 PM 41.0 °F 33.5 °F 35.6 °F 81% 29.89 in 6.2 mi NNE 13.8 mph - N/A   Mostly Cloudy
8:30 PM 41.0 °F 33.1 °F 35.6 °F 81% 29.92 in 6.2 mi NNE 15.0 mph 26.5 mph N/A   Overcast
9:00 PM 41.0 °F 33.9 °F 35.6 °F 81% 29.92 in 6.2 mi NNE 12.7 mph - N/A   Overcast
9:30 PM 41.0 °F 33.9 °F 35.6 °F 81% 29.92 in 6.2 mi NNE 12.7 mph - N/A   Overcast
10:00 PM 41.0 °F 33.9 °F 35.6 °F 81% 29.95 in 6.2 mi NNE 12.7 mph - N/A   Overcast
10:30 PM 41.0 °F 34.3 °F 35.6 °F 81% 29.95 in 6.2 mi NNE 11.5 mph - N/A   Overcast
11:00 PM 41.0 °F 33.5 °F 35.6 °F 81% 29.95 in 6.2 mi NNE 13.8 mph - N/A   Overcast
11:30 PM 41.0 °F 34.3 °F 35.6 °F 81% 29.95 in 6.2 mi NNE 11.5 mph - N/A   Overcast